Location: Bondula
(6.3703°N, 10.6756°W)
Time: 21:21:55
(UTC+00:00)

Cosmos 962 Rocket - Pass Details

Date: 22 October 2019
Orbit: 950 x 1000 km, 83.0° (Epoch: 21 November)

Event Time Altitude Azimuth Distance (km) Brightness Sun altitude
Rises 05:13:47 0° 187° (S) 3,648 7.5 -19.2°
Reaches altitude 10° 05:16:16 10° 189° (S) 2,708 6.8 -18.6°
Maximum altitude 05:22:27 73° 273° (W) 1,021 4.4 -17.1°
Drops below altitude 10° 05:28:43 10° 358° (N) 2,737 6.7 -15.5°
Sets 05:31:15 0° 360° (N) 3,690 7.4 -14.9°
